Tinley Park, Illinois, United States (60477)
Lat: 41.57N, Lon: 87.78W
Wx Zone: ILZ014
Local Info
Past Weather Observations for Today

NOTE: This archive is for the closest National Weather Service station to Tinley Park. Information may differ from the station used for current weather conditions.

Click here for Long-term Archive

Time Weather Temperature Dewpoint Humidity Pressure Winds Precip Visibility
17:55
Clear
66°F / 19°C 37°F / 3°C 35% 29.95 in
(1014 mb)
W 11.5 mph
(W 19 kph)
- 10SM
17:35
Clear
66°F / 19°C 37°F / 3°C 35% 29.95 in
(1014 mb)
W 11.5 mph
(W 19 kph)
- 10SM
17:15
Clear
68°F / 20°C 37°F / 3°C 33% 29.95 in
(1014 mb)
W 11.5 mph
(W 19 kph)
- 10SM
16:55
Clear
68°F / 20°C 37°F / 3°C 33% 29.95 in
(1014 mb)
W 13.8 mph
(W 22 kph)
- 10SM
16:35
Clear
68°F / 20°C 39°F / 4°C 35% 29.95 in
(1014 mb)
W 10.4 mph
(W 17 kph)
- 10SM
16:15
Clear
70°F / 21°C 37°F / 3°C 31% 29.95 in
(1014 mb)
W 19.6 mph
(W 32 kph)
- 10SM
15:55
Clear
70°F / 21°C 39°F / 4°C 33% 29.95 in
(1014 mb)
SSW 21.9 mph
(SSW 35 kph)
- 10SM
15:35
Clear
70°F / 21°C 39°F / 4°C 33% 29.95 in
(1014 mb)
W 18.4 mph
(W 30 kph)
- 10SM
15:15
Clear
70°F / 21°C 39°F / 4°C 33% 29.95 in
(1014 mb)
SSW 20.7 mph
(SSW 33 kph)
- 10SM
14:55
Clear
70°F / 21°C 39°F / 4°C 33% 29.95 in
(1014 mb)
SSW 18.4 mph
(SSW 30 kph)
- 10SM
14:35
Clear
70°F / 21°C 41°F / 5°C 35% 29.95 in
(1014 mb)
SSW 20.7 mph
(SSW 33 kph)
- 10SM
14:15
Clear
70°F / 21°C 39°F / 4°C 33% 29.95 in
(1014 mb)
W 23 mph
(W 37 kph)
- 10SM
13:55
Clear
70°F / 21°C 41°F / 5°C 35% 29.95 in
(1014 mb)
SSW 19.6 mph
(SSW 32 kph)
- 10SM
13:35
Clear
70°F / 21°C 41°F / 5°C 35% 29.98 in
(1015 mb)
SSW 19.6 mph
(SSW 32 kph)
- 10SM
13:15
Clear
70°F / 21°C 43°F / 6°C 38% 29.98 in
(1015 mb)
SSW 19.6 mph
(SSW 32 kph)
- 10SM
12:55
Clear
70°F / 21°C 41°F / 5°C 35% 29.98 in
(1015 mb)
W 21.9 mph
(W 35 kph)
- 10SM
12:35
Clear
70°F / 21°C 43°F / 6°C 38% 29.98 in
(1015 mb)
WNW 18.4 mph
(WNW 30 kph)
- 10SM
12:15
Clear
68°F / 20°C 41°F / 5°C 38% 29.98 in
(1015 mb)
W 23 mph
(W 37 kph)
- 10SM
11:55
Clear
70°F / 21°C 43°F / 6°C 38% 30.01 in
(1016 mb)
W 21.9 mph
(W 35 kph)
- 10SM
11:35
Clear
68°F / 20°C 43°F / 6°C 40% 30.01 in
(1016 mb)
WNW 16.1 mph
(WNW 26 kph)
- 10SM
11:15
Clear
68°F / 20°C 43°F / 6°C 40% 30.01 in
(1016 mb)
W 20.7 mph
(W 33 kph)
- 10SM
10:55
Clear
68°F / 20°C 43°F / 6°C 40% 30.01 in
(1016 mb)
W 18.4 mph
(W 30 kph)
- 10SM
10:35
Clear
68°F / 20°C 43°F / 6°C 40% 30.01 in
(1016 mb)
W 17.3 mph
(W 28 kph)
- 10SM
10:15
Clear
68°F / 20°C 45°F / 7°C 43% 30.01 in
(1016 mb)
SSW 20.7 mph
(SSW 33 kph)
- 10SM
09:55
Clear
66°F / 19°C 46°F / 8°C 49% 30.01 in
(1016 mb)
SSW 18.4 mph
(SSW 30 kph)
- 10SM
09:35
Clear
66°F / 19°C 46°F / 8°C 49% 30.01 in
(1016 mb)
SSW 15 mph
(SSW 24 kph)
- 10SM
09:15
Clear
64°F / 18°C 48°F / 9°C 56% 30.01 in
(1016 mb)
SSW 15 mph
(SSW 24 kph)
- 10SM
08:55
Clear
64°F / 18°C 50°F / 10°C 60% 30.01 in
(1016 mb)
SSW 12.7 mph
(SSW 20 kph)
- 10SM
08:35
Clear
63°F / 17°C 52°F / 11°C 68% 30.04 in
(1017 mb)
W 15 mph
(W 24 kph)
- 10SM
08:15
Clear
61°F / 16°C 52°F / 11°C 72% 30.04 in
(1017 mb)
W 12.7 mph
(W 20 kph)
- 10SM
07:55
Clear
59°F / 15°C 54°F / 12°C 82% 30.04 in
(1017 mb)
SSW 11.5 mph
(SSW 19 kph)
- 10SM
07:35
Clear
59°F / 15°C 54°F / 12°C 82% 30.04 in
(1017 mb)
W 10.4 mph
(W 17 kph)
- 10SM
07:15
Clear
59°F / 15°C 54°F / 12°C 82% 30.04 in
(1017 mb)
W 10.4 mph
(W 17 kph)
- 10SM
06:55
Fair
N/A N/A N/A 30.04 in
(1017 mb)
Calm -
06:35
Clear
59°F / 15°C 54°F / 12°C 82% 30.04 in
(1017 mb)
SSW 8.1 mph
(SSW 13 kph)
- 10SM
06:15
Clear
57°F / 14°C 54°F / 12°C 88% 30.01 in
(1016 mb)
SSW 6.9 mph
(SSW 11 kph)
- 10SM
05:55
Clear
57°F / 14°C 54°F / 12°C 88% 30.01 in
(1016 mb)
SSW 5.8 mph
(SSW 9 kph)
- 10SM
05:35
Clear
59°F / 15°C 54°F / 12°C 82% 30.01 in
(1016 mb)
W 6.9 mph
(W 11 kph)
- 10SM
05:15
Clear
59°F / 15°C 54°F / 12°C 82% 30.01 in
(1016 mb)
W 6.9 mph
(W 11 kph)
- 10SM
04:55
Clear
59°F / 15°C 55°F / 13°C 88% 30.01 in
(1016 mb)
W 5.8 mph
(W 9 kph)
- 10SM
04:35
Partly Cloudy
59°F / 15°C 55°F / 13°C 88% 30.01 in
(1016 mb)
WNW 5.8 mph
(WNW 9 kph)
- 10SM
04:15
Partly Cloudy
59°F / 15°C 55°F / 13°C 88% 29.98 in
(1015 mb)
NW 6.9 mph
(NW 11 kph)
- 10SM
03:55
Mostly Cloudy
59°F / 15°C 57°F / 14°C 94% 30.01 in
(1016 mb)
W 10.4 mph
(W 17 kph)
- 10SM
03:35
Partly Cloudy
59°F / 15°C 57°F / 14°C 94% 29.98 in
(1015 mb)
W 4.6 mph
(W 7 kph)
- 10SM
03:15
Mostly Cloudy
Light Rain
59°F / 15°C 59°F / 15°C 100% 29.98 in
(1015 mb)
W 9.2 mph
(W 15 kph)
- 10SM
02:55
Overcast
Light Rain
59°F / 15°C 59°F / 15°C 100% 29.98 in
(1015 mb)
SSW 9.2 mph
(SSW 15 kph)
- 10SM
02:35
Overcast
Light Rain
59°F / 15°C 57°F / 14°C 94% 29.98 in
(1015 mb)
SSW 8.1 mph
(SSW 13 kph)
- 10SM
02:15
Overcast
Light Rain
59°F / 15°C 57°F / 14°C 94% 29.98 in
(1015 mb)
SSW 5.8 mph
(SSW 9 kph)
- 10SM
01:55
Overcast
Light Rain
61°F / 16°C 57°F / 14°C 88% 29.98 in
(1015 mb)
SSW 6.9 mph
(SSW 11 kph)
0.01 in
(0.25 mm)
10SM
01:35
Overcast
Rain
61°F / 16°C 57°F / 14°C 88% 29.98 in
(1015 mb)
WNW 6.9 mph
(WNW 11 kph)
- 7SM
01:15
Overcast
Light Rain
64°F / 18°C 55°F / 13°C 73% 30.01 in
(1016 mb)
WNW 9.2 mph
(WNW 15 kph)
- 10SM
00:55
Overcast
Light Rain
66°F / 19°C 55°F / 13°C 68% 29.98 in
(1015 mb)
W 15 mph
(W 24 kph)
- 10SM
00:35
Overcast
66°F / 19°C 55°F / 13°C 68% 29.98 in
(1015 mb)
WNW 10.4 mph
(WNW 17 kph)
- 10SM
00:15
Overcast
66°F / 19°C 55°F / 13°C 68% 29.98 in
(1015 mb)
WNW 6.9 mph
(WNW 11 kph)
- 10SM
Time Weather Temperature Dewpoint Humidity Pressure Winds Precip Visibility


Weather for websites

WeatherForYou.com, LLC is not responsible for any damages or problems caused by this service. Current weather conditions are obtained from the closest station including government and personal stations which may have varying degrees of accuracy. Weather forecasts are derived from the NOAA NDFD. Like all things, this site belongs to Jesus Christ... He just trusts us to maintain it. If you have any questions or comments email webmaster@weatherforyou.com

Copyright © 2016, WeatherForYou.com LLC. All rights reserved.